TimeHDT,TemperatureF,Dew PointF,Humidity,Sea Level PressureIn,VisibilityMPH,Wind Direction,Wind SpeedMPH,Gust SpeedMPH,PrecipitationIn,Events,Conditions,WindDirDegrees,DateUTC
12:16 AM,60.8,57.2,88,29.95,10.0,SSW,16.1,-,N/A,,Overcast,210,2013-08-24 09:16:00
12:36 AM,60.8,57.2,88,29.94,10.0,SSW,6.9,18.4,N/A,,Overcast,210,2013-08-24 09:36:00
12:56 AM,62.6,57.2,82,29.94,10.0,SW,15.0,20.7,N/A,,Overcast,220,2013-08-24 09:56:00
1:16 AM,60.8,57.2,88,29.94,10.0,SW,17.3,-,N/A,,Overcast,220,2013-08-24 10:16:00
1:36 AM,62.6,57.2,82,29.94,10.0,SW,8.1,19.6,N/A,,Overcast,220,2013-08-24 10:36:00
1:56 AM,60.8,55.4,82,29.94,10.0,WSW,15.0,26.5,N/A,,Overcast,250,2013-08-24 10:56:00
2:16 AM,62.6,57.2,82,29.94,10.0,Calm,Calm,-,N/A,,Overcast,0,2013-08-24 11:16:00
2:36 AM,60.8,57.2,88,29.94,5.0,Calm,Calm,-,N/A,,Overcast,0,2013-08-24 11:36:00
2:56 AM,60.8,57.2,88,29.94,10.0,South,3.5,-,N/A,,Overcast,170,2013-08-24 11:56:00
3:16 AM,60.8,57.2,88,29.94,10.0,WSW,15.0,-,N/A,,Overcast,240,2013-08-24 12:16:00
3:36 AM,62.6,57.2,82,29.94,10.0,SW,13.8,18.4,N/A,,Overcast,230,2013-08-24 12:36:00
3:56 AM,62.6,57.2,82,29.94,10.0,WSW,15.0,20.7,N/A,,Overcast,240,2013-08-24 12:56:00
4:16 AM,62.6,57.2,82,29.94,10.0,SW,15.0,20.7,N/A,,Overcast,230,2013-08-24 13:16:00
4:36 AM,64.4,60.8,88,29.94,10.0,SW,6.9,18.4,N/A,,Overcast,230,2013-08-24 13:36:00
4:56 AM,62.6,57.2,82,29.94,10.0,WSW,17.3,23.0,N/A,,Overcast,240,2013-08-24 13:56:00
5:16 AM,62.6,57.2,82,29.93,10.0,WSW,20.7,-,N/A,,Overcast,240,2013-08-24 14:16:00
5:36 AM,64.4,59.0,83,29.94,10.0,WSW,6.9,-,N/A,,Mostly Cloudy,240,2013-08-24 14:36:00
5:56 AM,62.6,59.0,88,29.94,10.0,Calm,Calm,-,N/A,,Mostly Cloudy,0,2013-08-24 14:56:00
6:16 AM,62.6,57.2,82,29.93,10.0,SW,11.5,-,N/A,,Overcast,230,2013-08-24 15:16:00
6:36 AM,62.6,59.0,88,29.93,10.0,SW,10.4,-,N/A,,Overcast,230,2013-08-24 15:36:00
6:56 AM,60.8,57.2,88,29.93,10.0,SW,16.1,-,N/A,,Overcast,230,2013-08-24 15:56:00
7:16 AM,62.6,57.2,82,29.93,10.0,SW,17.3,-,N/A,,Overcast,230,2013-08-24 16:16:00
7:36 AM,62.6,57.2,82,29.93,10.0,SW,11.5,-,N/A,,Overcast,220,2013-08-24 16:36:00
7:56 AM,60.8,55.4,82,29.94,10.0,SW,13.8,-,N/A,,Overcast,220,2013-08-24 16:56:00
8:16 AM,60.8,57.2,88,29.95,10.0,SSW,8.1,-,N/A,,Overcast,210,2013-08-24 17:16:00
8:36 AM,59.0,55.4,88,29.95,10.0,SW,9.2,-,N/A,,Overcast,230,2013-08-24 17:36:00
8:56 AM,60.8,55.4,82,29.95,10.0,SSW,12.7,-,N/A,,Overcast,210,2013-08-24 17:56:00
9:16 AM,59.0,55.4,88,29.95,10.0,SW,10.4,-,N/A,,Overcast,230,2013-08-24 18:16:00
9:36 AM,59.0,53.6,82,29.95,10.0,SW,12.7,20.7,N/A,,Overcast,230,2013-08-24 18:36:00
9:56 AM,59.0,53.6,82,29.95,10.0,SW,20.7,-,N/A,,Overcast,220,2013-08-24 18:56:00
10:16 AM,60.8,55.4,82,29.95,10.0,SSW,11.5,-,N/A,,Overcast,210,2013-08-24 19:16:00
10:36 AM,60.8,55.4,82,29.95,10.0,SSW,15.0,19.6,N/A,,Overcast,200,2013-08-24 19:36:00
10:56 AM,59.0,55.4,88,29.95,7.0,SSW,15.0,-,N/A,,Overcast,210,2013-08-24 19:56:00
11:16 AM,59.0,55.4,88,29.95,9.0,SSW,10.4,-,N/A,,Overcast,210,2013-08-24 20:16:00
11:36 AM,57.2,53.6,88,29.94,5.0,SSW,11.5,-,N/A,,Overcast,210,2013-08-24 20:36:00
11:56 AM,57.2,55.4,94,29.95,5.0,SSW,11.5,19.6,N/A,,Overcast,200,2013-08-24 20:56:00
12:16 PM,59.0,55.4,88,29.95,10.0,SSW,15.0,19.6,N/A,,Overcast,210,2013-08-24 21:16:00
12:36 PM,57.2,55.4,94,29.94,3.0,South,12.7,-,N/A,,Overcast,190,2013-08-24 21:36:00
12:56 PM,59.0,55.4,88,29.94,6.0,SSW,16.1,21.9,N/A,,Overcast,210,2013-08-24 21:56:00
1:16 PM,59.0,55.4,88,29.93,7.0,SSW,15.0,19.6,N/A,,Overcast,210,2013-08-24 22:16:00
1:36 PM,57.2,55.4,94,29.93,3.0,South,11.5,17.3,N/A,,Overcast,180,2013-08-24 22:36:00
1:56 PM,57.2,55.4,94,29.92,2.5,WSW,11.5,19.6,N/A,,Overcast,240,2013-08-24 22:56:00
2:16 PM,59.0,55.4,88,29.92,4.0,WNW,9.2,17.3,N/A,,Overcast,290,2013-08-24 23:16:00
2:36 PM,59.0,55.4,88,29.93,7.0,WSW,15.0,21.9,N/A,,Overcast,250,2013-08-24 23:36:00
2:56 PM,57.2,55.4,94,29.91,2.5,SW,18.4,29.9,N/A,,Overcast,230,2013-08-24 23:56:00
3:16 PM,57.2,55.4,94,29.91,5.0,SW,17.3,26.5,N/A,,Overcast,230,2013-08-25 00:16:00
3:36 PM,57.2,55.4,94,29.90,2.5,SSW,20.7,27.6,N/A,,Overcast,210,2013-08-25 00:36:00
3:56 PM,57.2,55.4,94,29.90,3.0,SW,17.3,24.2,N/A,,Overcast,220,2013-08-25 00:56:00
4:16 PM,57.2,53.6,88,29.90,2.5,SW,20.7,29.9,N/A,,Overcast,230,2013-08-25 01:16:00
4:36 PM,59.0,53.6,82,29.89,9.0,SW,18.4,25.3,N/A,,Overcast,220,2013-08-25 01:36:00
4:56 PM,59.0,53.6,82,29.89,9.0,SW,17.3,29.9,N/A,,Overcast,230,2013-08-25 01:56:00
5:16 PM,59.0,53.6,82,29.88,10.0,SW,21.9,28.8,N/A,,Mostly Cloudy,230,2013-08-25 02:16:00
5:36 PM,57.2,53.6,88,29.88,10.0,SW,20.7,31.1,N/A,,Clear,230,2013-08-25 02:36:00
5:56 PM,57.2,53.6,88,29.87,10.0,SSW,18.4,26.5,N/A,,Scattered Clouds,210,2013-08-25 02:56:00
6:16 PM,57.2,53.6,88,29.86,10.0,SW,26.5,33.4,N/A,,Mostly Cloudy,220,2013-08-25 03:16:00
6:36 PM,57.2,53.6,88,29.87,10.0,SW,17.3,24.2,N/A,,Overcast,230,2013-08-25 03:36:00
6:56 PM,57.2,53.6,88,29.87,10.0,SW,15.0,-,N/A,,Mostly Cloudy,230,2013-08-25 03:56:00
7:16 PM,59.0,53.6,82,29.88,10.0,WSW,16.1,23.0,N/A,,Scattered Clouds,240,2013-08-25 04:16:00
7:36 PM,57.2,53.6,88,29.88,10.0,WSW,15.0,-,N/A,,Partly Cloudy,240,2013-08-25 04:36:00
7:56 PM,59.0,53.6,82,29.88,10.0,SW,13.8,-,N/A,,Scattered Clouds,230,2013-08-25 04:56:00
8:16 PM,59.0,55.4,88,29.89,10.0,WSW,11.5,-,N/A,,Partly Cloudy,250,2013-08-25 05:16:00
8:36 PM,60.8,55.4,82,29.90,10.0,West,10.4,-,N/A,,Mostly Cloudy,260,2013-08-25 05:36:00
8:56 PM,60.8,55.4,82,29.90,10.0,West,9.2,-,N/A,,Overcast,280,2013-08-25 05:56:00
9:16 PM,59.0,55.4,88,29.91,10.0,WSW,4.6,-,N/A,,Overcast,250,2013-08-25 06:16:00
9:36 PM,57.2,53.6,88,29.91,10.0,WSW,8.1,-,N/A,,Mostly Cloudy,240,2013-08-25 06:36:00
9:56 PM,55.4,51.8,88,29.92,10.0,SW,12.7,-,N/A,,Partly Cloudy,220,2013-08-25 06:56:00
10:16 PM,57.2,53.6,88,29.92,10.0,Calm,Calm,-,N/A,,Clear,0,2013-08-25 07:16:00
10:36 PM,55.4,51.8,88,29.93,10.0,SW,12.7,-,N/A,,Clear,230,2013-08-25 07:36:00
10:56 PM,55.4,51.8,88,29.93,10.0,NNW,3.5,-,N/A,,Clear,340,2013-08-25 07:56:00
11:16 PM,55.4,53.6,94,29.93,10.0,NNE,3.5,-,N/A,,Clear,30,2013-08-25 08:16:00
11:36 PM,55.4,51.8,88,29.93,10.0,ESE,5.8,-,N/A,,Clear,120,2013-08-25 08:36:00
11:56 PM,51.8,48.2,88,29.93,10.0,East,3.5,-,N/A,,Clear,90,2013-08-25 08:56:00